Time,TemperatureF,DewpointF,PressureIn,WindDirection,WindDirectionDegrees,WindSpeedMPH,WindSpeedGustMPH,Humidity,HourlyPrecipIn,Conditions,Clouds,dailyrainin,SoftwareType,DateUTC
2013-03-09 00:00:00,35.2,33.4,29.99,SE,135,11.5,11.5,93,0.00,RA,,0.00,WeatherDisplay:10.37,2013-03-09 06:00:00,
2013-03-09 00:05:00,35.2,33.4,29.99,SE,135,14.3,14.3,93,0.00,RA,,0.00,WeatherDisplay:10.37,2013-03-09 06:05:00,
2013-03-09 00:10:00,35.2,33.7,29.97,SE,135,12.7,12.7,94,0.00,RA,,0.04,WeatherDisplay:10.37,2013-03-09 06:10:00,
2013-03-09 00:15:00,35.4,33.9,29.97,ESE,112,11.6,12.4,94,0.00,RA,,0.04,WeatherDisplay:10.37,2013-03-09 06:15:00,
2013-03-09 00:20:00,35.2,33.7,29.97,ESE,112,9.5,10.1,94,0.00,CLR,,0.04,WeatherDisplay:10.37,2013-03-09 06:20:00,
2013-03-09 00:25:00,35.2,33.7,29.97,SE,135,11.5,11.5,94,0.00,CLR,,0.06,WeatherDisplay:10.37,2013-03-09 06:25:00,
2013-03-09 00:30:00,35.2,33.7,29.99,SE,135,11.5,12.2,94,0.02,RA,,0.06,WeatherDisplay:10.37,2013-03-09 06:30:00,
2013-03-09 00:35:00,35.2,33.7,29.97,ESE,112,5.4,5.4,94,0.02,RA,,0.06,WeatherDisplay:10.37,2013-03-09 06:35:00,
2013-03-09 00:40:00,35.2,33.7,29.97,ESE,112,8.1,8.7,94,0.02,CLR,,0.06,WeatherDisplay:10.37,2013-03-09 06:40:00,
2013-03-09 00:45:00,35.1,33.8,29.97,ESE,112,4.6,4.6,95,0.02,CLR,,0.06,WeatherDisplay:10.37,2013-03-09 06:45:00,
2013-03-09 00:50:00,35.1,33.8,29.97,ESE,112,5.8,5.8,95,0.02,CLR,,0.06,WeatherDisplay:10.37,2013-03-09 06:50:00,
2013-03-09 00:55:00,35.2,34.0,29.96,ESE,112,7.3,7.8,95,0.02,CLR,,0.06,WeatherDisplay:10.37,2013-03-09 06:55:00,
2013-03-09 01:00:00,35.2,34.0,29.95,ESE,112,9.2,9.2,95,0.08,RA,,0.08,WeatherDisplay:10.37,2013-03-09 07:00:00,
2013-03-09 01:05:00,35.2,34.0,29.95,East,90,8.1,8.4,95,0.08,RA,,0.08,WeatherDisplay:10.37,2013-03-09 07:05:00,
2013-03-09 01:10:00,35.2,34.0,29.96,East,90,2.4,2.4,95,0.04,,,0.08,WeatherDisplay:10.37,2013-03-09 07:10:00,
2013-03-09 01:15:00,35.2,34.0,29.97,ESE,112,1.6,1.7,95,0.04,CLR,,0.08,WeatherDisplay:10.37,2013-03-09 07:15:00,
2013-03-09 01:20:00,35.2,34.0,29.97,ESE,112,0.0,0.0,95,0.04,CLR,,0.08,WeatherDisplay:10.37,2013-03-09 07:20:00,
2013-03-09 01:25:00,35.2,34.2,29.99,ESE,112,0.0,0.0,96,0.04,CLR,,0.08,WeatherDisplay:10.37,2013-03-09 07:25:00,
2013-03-09 01:30:00,35.2,34.2,29.97,ESE,112,0.0,0.0,96,0.02,CLR,,0.08,WeatherDisplay:10.37,2013-03-09 07:30:00,
2013-03-09 01:35:00,35.2,34.2,29.97,East,90,0.0,0.0,96,0.02,CLR,,0.08,WeatherDisplay:10.37,2013-03-09 07:35:00,
2013-03-09 01:40:00,35.2,34.2,29.97,East,90,0.0,0.0,96,0.02,CLR,,0.08,WeatherDisplay:10.37,2013-03-09 07:40:00,
2013-03-09 01:45:00,35.1,33.8,29.97,East,90,0.0,0.0,95,0.02,CLR,,0.08,WeatherDisplay:10.37,2013-03-09 07:45:00,
2013-03-09 01:50:00,35.1,33.8,29.96,East,90,2.3,2.5,95,0.02,CLR,,0.08,WeatherDisplay:10.37,2013-03-09 07:50:00,
2013-03-09 01:55:00,35.1,33.8,29.95,East,90,8.1,8.1,95,0.02,CLR,,0.08,WeatherDisplay:10.37,2013-03-09 07:55:00,
2013-03-09 02:00:00,34.9,33.9,29.95,East,90,0.0,0.0,96,0.00,CLR,,0.08,WeatherDisplay:10.37,2013-03-09 08:00:00,
2013-03-09 02:05:00,35.1,34.0,29.95,ESE,112,0.0,0.0,96,0.00,CLR,,0.08,WeatherDisplay:10.37,2013-03-09 08:05:00,
2013-03-09 02:10:00,35.1,34.0,29.95,East,90,0.0,0.0,96,0.02,RA,,0.10,WeatherDisplay:10.37,2013-03-09 08:10:00,
2013-03-09 02:15:00,34.9,33.9,29.96,ESE,112,0.0,0.0,96,0.02,RA,,0.10,WeatherDisplay:10.37,2013-03-09 08:15:00,
2013-03-09 02:20:00,34.9,33.9,29.96,ESE,112,0.0,0.0,96,0.02,CLR,,0.10,WeatherDisplay:10.37,2013-03-09 08:20:00,
2013-03-09 02:25:00,34.7,33.7,29.96,East,90,0.0,0.0,96,0.02,CLR,,0.10,WeatherDisplay:10.37,2013-03-09 08:25:00,
2013-03-09 02:30:00,34.7,33.7,29.96,ESE,112,0.0,0.0,96,0.02,CLR,,0.10,WeatherDisplay:10.37,2013-03-09 08:30:00,
2013-03-09 02:35:00,34.7,33.7,29.94,East,90,4.1,4.1,96,0.10,RA,,0.18,WeatherDisplay:10.37,2013-03-09 08:35:00,
2013-03-09 02:40:00,34.5,33.5,29.94,ESE,112,7.3,7.8,96,0.10,RA,,0.18,WeatherDisplay:10.37,2013-03-09 08:40:00,
2013-03-09 02:45:00,34.3,33.3,29.94,ESE,112,6.2,6.7,96,0.12,RA,,0.20,WeatherDisplay:10.37,2013-03-09 08:45:00,
2013-03-09 02:50:00,34.3,33.3,29.94,ESE,112,5.8,8.7,96,0.12,RA,,0.20,WeatherDisplay:10.37,2013-03-09 08:50:00,
2013-03-09 02:55:00,34.5,33.8,29.93,ESE,112,9.2,9.2,97,0.14,RA,,0.22,WeatherDisplay:10.37,2013-03-09 08:55:00,
2013-03-09 03:00:00,34.5,33.8,29.92,ESE,112,5.8,5.8,97,0.16,RA,,0.24,WeatherDisplay:10.37,2013-03-09 09:00:00,
2013-03-09 03:05:00,34.5,33.8,29.92,ESE,112,8.4,8.4,97,0.16,RA,,0.24,WeatherDisplay:10.37,2013-03-09 09:05:00,
2013-03-09 03:10:00,34.3,33.6,29.91,ESE,112,5.9,6.4,97,0.14,,,0.24,WeatherDisplay:10.37,2013-03-09 09:10:00,
2013-03-09 03:15:00,34.5,34.0,29.92,East,90,5.8,5.8,98,0.14,CLR,,0.24,WeatherDisplay:10.37,2013-03-09 09:15:00,
2013-03-09 03:20:00,34.7,34.2,29.92,ESE,112,8.1,8.1,98,0.16,RA,,0.26,WeatherDisplay:10.37,2013-03-09 09:20:00,
2013-03-09 03:25:00,34.5,34.0,29.92,East,90,4.6,5.2,98,0.16,RA,,0.26,WeatherDisplay:10.37,2013-03-09 09:25:00,
2013-03-09 03:30:00,34.7,34.2,29.91,ESE,112,6.9,7.2,98,0.18,RA,,0.28,WeatherDisplay:10.37,2013-03-09 09:30:00,
2013-03-09 03:35:00,34.5,34.0,29.91,ESE,112,5.8,5.8,98,0.12,RA,,0.30,WeatherDisplay:10.37,2013-03-09 09:35:00,
2013-03-09 03:40:00,34.5,34.0,29.90,ESE,112,7.0,7.5,98,0.12,RA,,0.30,WeatherDisplay:10.37,2013-03-09 09:40:00,
2013-03-09 03:45:00,34.7,34.4,29.90,East,90,6.9,6.9,99,0.10,,,0.30,WeatherDisplay:10.37,2013-03-09 09:45:00,
2013-03-09 03:50:00,34.5,34.3,29.90,ESE,112,6.9,7.2,99,0.10,CLR,,0.30,WeatherDisplay:10.37,2013-03-09 09:50:00,
2013-03-09 03:55:00,34.7,34.4,29.89,SE,135,8.4,9.0,99,0.08,CLR,,0.30,WeatherDisplay:10.37,2013-03-09 09:55:00,
2013-03-09 04:00:00,34.7,34.4,29.89,ESE,112,9.2,9.2,99,0.06,CLR,,0.30,WeatherDisplay:10.37,2013-03-09 10:00:00,
2013-03-09 04:05:00,34.7,34.4,29.89,SE,135,13.8,13.8,99,0.06,CLR,,0.30,WeatherDisplay:10.37,2013-03-09 10:05:00,
2013-03-09 04:10:00,34.9,34.9,29.89,SE,135,13.8,13.8,100,0.08,RA,,0.32,WeatherDisplay:10.37,2013-03-09 10:10:00,
2013-03-09 04:15:00,35.1,35.1,29.89,ESE,112,13.8,15.2,100,0.08,RA,,0.32,WeatherDisplay:10.37,2013-03-09 10:15:00,
2013-03-09 04:20:00,35.1,35.1,29.89,SE,135,13.0,13.8,100,0.06,CLR,,0.32,WeatherDisplay:10.37,2013-03-09 10:20:00,
2013-03-09 04:25:00,35.2,35.2,29.88,ESE,112,15.0,16.5,100,0.06,CLR,,0.32,WeatherDisplay:10.37,2013-03-09 10:25:00,
2013-03-09 04:30:00,35.1,35.1,29.88,ESE,112,11.5,12.3,100,0.04,CLR,,0.32,WeatherDisplay:10.37,2013-03-09 10:30:00,
2013-03-09 04:35:00,35.2,35.2,29.88,SE,135,13.8,13.8,100,0.02,CLR,,0.32,WeatherDisplay:10.37,2013-03-09 10:35:00,
2013-03-09 04:40:00,35.2,35.2,29.88,SE,135,11.5,12.4,100,0.02,CLR,,0.32,WeatherDisplay:10.37,2013-03-09 10:40:00,
2013-03-09 04:45:00,35.2,35.2,29.88,ESE,112,15.4,16.5,100,0.02,CLR,,0.32,WeatherDisplay:10.37,2013-03-09 10:45:00,
2013-03-09 04:50:00,35.2,35.2,29.87,SE,135,16.1,16.8,100,0.02,CLR,,0.32,WeatherDisplay:10.37,2013-03-09 10:50:00,
2013-03-09 04:55:00,35.2,35.2,29.87,SE,135,17.3,18.5,100,0.02,CLR,,0.32,WeatherDisplay:10.37,2013-03-09 10:55:00,
2013-03-09 05:00:00,35.6,35.6,29.87,ESE,112,16.1,16.8,100,0.02,CLR,,0.32,WeatherDisplay:10.37,2013-03-09 11:00:00,
2013-03-09 05:05:00,35.6,35.6,29.87,SE,135,17.3,17.3,100,0.02,CLR,,0.32,WeatherDisplay:10.37,2013-03-09 11:05:00,
2013-03-09 05:10:00,35.6,35.6,29.87,ESE,112,13.8,14.2,100,0.00,CLR,,0.32,WeatherDisplay:10.37,2013-03-09 11:10:00,
2013-03-09 05:15:00,35.6,35.6,29.88,SE,135,13.8,14.4,100,0.00,CLR,,0.32,WeatherDisplay:10.37,2013-03-09 11:15:00,
2013-03-09 05:20:00,35.6,35.6,29.88,SE,135,12.7,13.6,100,0.00,CLR,,0.32,WeatherDisplay:10.37,2013-03-09 11:20:00,
2013-03-09 05:25:00,35.6,35.6,29.87,SE,135,10.8,11.6,100,0.00,CLR,,0.32,WeatherDisplay:10.37,2013-03-09 11:25:00,
2013-03-09 05:30:00,35.6,35.6,29.86,ESE,112,14.1,15.0,100,0.00,CLR,,0.32,WeatherDisplay:10.37,2013-03-09 11:30:00,
2013-03-09 05:35:00,35.6,35.6,29.86,SE,135,15.0,15.6,100,0.00,CLR,,0.32,WeatherDisplay:10.37,2013-03-09 11:35:00,
2013-03-09 05:40:00,35.8,35.8,29.86,SE,135,12.7,13.0,100,0.00,CLR,,0.32,WeatherDisplay:10.37,2013-03-09 11:40:00,
2013-03-09 05:45:00,35.6,35.6,29.86,East,90,13.8,13.8,100,0.00,CLR,,0.32,WeatherDisplay:10.37,2013-03-09 11:45:00,
2013-03-09 05:50:00,35.6,35.6,29.85,SE,135,16.5,17.6,100,0.00,CLR,,0.32,WeatherDisplay:10.37,2013-03-09 11:50:00,
2013-03-09 05:55:00,35.8,35.8,29.86,ESE,112,13.8,14.2,100,0.00,CLR,,0.32,WeatherDisplay:10.37,2013-03-09 11:55:00,
2013-03-09 06:00:00,35.8,35.8,29.85,SE,135,12.7,13.3,100,0.00,CLR,,0.32,WeatherDisplay:10.37,2013-03-09 12:00:00,
2013-03-09 06:05:00,35.8,35.8,29.86,SE,135,11.5,12.2,100,0.00,CLR,,0.32,WeatherDisplay:10.37,2013-03-09 12:05:00,
2013-03-09 06:10:00,35.8,35.8,29.85,SE,135,13.8,14.2,100,0.00,CLR,,0.32,WeatherDisplay:10.37,2013-03-09 12:10:00,
2013-03-09 06:15:00,35.6,35.6,29.85,SE,135,12.7,12.7,100,0.00,CLR,,0.32,WeatherDisplay:10.37,2013-03-09 12:15:00,
2013-03-09 06:20:00,35.4,35.4,29.85,SE,135,11.5,11.5,100,0.00,CLR,,0.32,WeatherDisplay:10.37,2013-03-09 12:20:00,
2013-03-09 06:25:00,35.4,35.4,29.84,SSE,158,12.7,13.8,100,0.00,CLR,,0.32,WeatherDisplay:10.37,2013-03-09 12:25:00,
2013-03-09 06:30:00,35.2,35.2,29.84,SE,135,12.7,12.7,100,0.00,CLR,,0.32,WeatherDisplay:10.37,2013-03-09 12:30:00,
2013-03-09 06:35:00,35.4,35.4,29.84,SE,135,8.4,9.0,100,0.00,CLR,,0.32,WeatherDisplay:10.37,2013-03-09 12:35:00,
2013-03-09 06:40:00,35.4,35.4,29.83,SE,135,14.9,14.9,100,0.00,CLR,,0.32,WeatherDisplay:10.37,2013-03-09 12:40:00,
2013-03-09 06:45:00,35.2,35.2,29.83,SE,135,5.8,6.3,100,0.00,CLR,,0.32,WeatherDisplay:10.37,2013-03-09 12:45:00,
2013-03-09 06:50:00,35.4,35.4,29.83,SE,135,8.1,8.1,100,0.00,CLR,,0.32,WeatherDisplay:10.37,2013-03-09 12:50:00,
2013-03-09 06:55:00,35.8,35.8,29.82,SE,135,8.1,8.2,100,0.00,CLR,,0.32,WeatherDisplay:10.37,2013-03-09 12:55:00,
2013-03-09 07:00:00,35.8,35.8,29.83,SE,135,10.4,11.6,100,0.00,CLR,,0.32,WeatherDisplay:10.37,2013-03-09 13:00:00,
2013-03-09 07:05:00,35.8,35.8,29.83,SE,135,8.1,8.1,100,0.00,CLR,,0.32,WeatherDisplay:10.37,2013-03-09 13:05:00,
2013-03-09 07:10:00,35.8,35.8,29.83,SE,135,13.8,14.5,100,0.00,CLR,,0.32,WeatherDisplay:10.37,2013-03-09 13:10:00,
2013-03-09 07:15:00,36.0,36.0,29.84,SSE,158,10.4,11.6,100,0.00,CLR,,0.32,WeatherDisplay:10.37,2013-03-09 13:15:00,
2013-03-09 07:20:00,36.0,36.0,29.83,SE,135,9.5,10.1,100,0.00,CLR,,0.32,WeatherDisplay:10.37,2013-03-09 13:20:00,
2013-03-09 07:25:00,36.0,36.0,29.83,SE,135,8.1,8.1,100,0.00,CLR,,0.32,WeatherDisplay:10.37,2013-03-09 13:25:00,
2013-03-09 07:30:00,36.0,36.0,29.83,SE,135,7.0,7.5,100,0.00,CLR,,0.32,WeatherDisplay:10.37,2013-03-09 13:30:00,
2013-03-09 07:35:00,36.1,36.1,29.83,SSE,158,8.1,8.4,100,0.00,CLR,,0.32,WeatherDisplay:10.37,2013-03-09 13:35:00,
2013-03-09 07:40:00,36.1,36.1,29.83,SE,135,5.8,5.8,100,0.00,CLR,,0.32,WeatherDisplay:10.37,2013-03-09 13:40:00,
2013-03-09 07:45:00,36.1,36.1,29.82,SE,135,15.0,15.6,100,0.00,CLR,,0.32,WeatherDisplay:10.37,2013-03-09 13:45:00,
2013-03-09 07:50:00,36.1,36.1,29.82,SE,135,9.5,10.1,100,0.00,CLR,,0.32,WeatherDisplay:10.37,2013-03-09 13:50:00,
2013-03-09 07:55:00,36.1,36.1,29.82,SSE,158,17.3,17.3,100,0.00,CLR,,0.32,WeatherDisplay:10.37,2013-03-09 13:55:00,
2013-03-09 08:00:00,36.3,36.3,29.82,SSE,158,10.4,10.7,100,0.00,CLR,,0.32,WeatherDisplay:10.37,2013-03-09 14:00:00,
2013-03-09 08:05:00,36.3,36.3,29.82,South,180,21.9,23.1,100,0.00,CLR,,0.32,WeatherDisplay:10.37,2013-03-09 14:05:00,
2013-03-09 08:10:00,36.3,36.3,29.83,SSE,158,13.8,13.8,100,0.00,CLR,,0.32,WeatherDisplay:10.37,2013-03-09 14:10:00,
2013-03-09 08:15:00,36.3,36.3,29.83,SSE,158,17.3,17.3,100,0.00,CLR,,0.32,WeatherDisplay:10.37,2013-03-09 14:15:00,
2013-03-09 08:20:00,36.3,36.3,29.82,SSE,158,15.0,15.9,100,0.00,CLR,,0.32,WeatherDisplay:10.37,2013-03-09 14:20:00,
2013-03-09 08:25:00,36.5,36.5,29.82,South,180,9.7,9.7,100,0.00,CLR,,0.32,WeatherDisplay:10.37,2013-03-09 14:25:00,
2013-03-09 08:30:00,36.5,36.5,29.82,SSE,158,11.5,11.5,100,0.00,CLR,,0.32,WeatherDisplay:10.37,2013-03-09 14:30:00,
2013-03-09 08:35:00,36.5,36.5,29.81,SSE,158,8.1,8.7,100,0.00,CLR,,0.32,WeatherDisplay:10.37,2013-03-09 14:35:00,
2013-03-09 08:40:00,36.7,36.7,29.81,SE,135,9.2,9.9,100,0.00,CLR,,0.32,WeatherDisplay:10.37,2013-03-09 14:40:00,
2013-03-09 08:45:00,36.9,36.9,29.81,SE,135,9.2,9.2,100,0.00,CLR,,0.32,WeatherDisplay:10.37,2013-03-09 14:45:00,
2013-03-09 08:50:00,36.9,36.9,29.79,SE,135,10.4,10.6,100,0.00,CLR,,0.32,WeatherDisplay:10.37,2013-03-09 14:50:00,
2013-03-09 08:55:00,37.0,37.0,29.79,SSE,158,12.7,12.7,100,0.00,CLR,,0.32,WeatherDisplay:10.37,2013-03-09 14:55:00,
2013-03-09 09:00:00,37.0,37.0,29.79,SE,135,10.5,11.3,100,0.00,CLR,,0.32,WeatherDisplay:10.37,2013-03-09 15:00:00,
2013-03-09 09:05:00,37.0,37.0,29.79,SSE,158,6.9,7.3,100,0.00,CLR,,0.32,WeatherDisplay:10.37,2013-03-09 15:05:00,
2013-03-09 09:10:00,37.2,37.2,29.78,SE,135,9.2,10.0,100,0.00,CLR,,0.32,WeatherDisplay:10.37,2013-03-09 15:10:00,
2013-03-09 09:15:00,37.4,37.4,29.78,SSE,158,10.4,11.0,100,0.00,CLR,,0.32,WeatherDisplay:10.37,2013-03-09 15:15:00,
2013-03-09 09:20:00,37.6,37.6,29.77,SSE,158,12.7,12.7,100,0.00,CLR,,0.32,WeatherDisplay:10.37,2013-03-09 15:20:00,
2013-03-09 09:25:00,37.6,37.6,29.77,SSE,158,11.5,12.0,100,0.00,CLR,,0.32,WeatherDisplay:10.37,2013-03-09 15:25:00,
2013-03-09 09:30:00,37.6,37.6,29.77,SSE,158,9.2,10.4,100,0.00,CLR,,0.32,WeatherDisplay:10.37,2013-03-09 15:30:00,
2013-03-09 09:35:00,37.6,37.6,29.78,SE,135,10.4,10.8,100,0.00,CLR,,0.32,WeatherDisplay:10.37,2013-03-09 15:35:00,
2013-03-09 09:40:00,37.6,37.6,29.78,SSE,158,13.8,13.8,100,0.00,CLR,,0.32,WeatherDisplay:10.37,2013-03-09 15:40:00,
2013-03-09 09:45:00,37.8,37.8,29.78,South,180,9.5,10.1,100,0.00,CLR,,0.32,WeatherDisplay:10.37,2013-03-09 15:45:00,
2013-03-09 09:50:00,37.8,37.8,29.78,SSE,158,9.2,10.4,100,0.00,CLR,,0.32,WeatherDisplay:10.37,2013-03-09 15:50:00,
2013-03-09 09:55:00,37.9,37.9,29.78,SSE,158,9.7,10.4,100,0.00,CLR,,0.32,WeatherDisplay:10.37,2013-03-09 15:55:00,
2013-03-09 10:00:00,37.9,37.9,29.78,SE,135,5.8,6.1,100,0.00,CLR,,0.32,WeatherDisplay:10.37,2013-03-09 16:00:00,
2013-03-09 10:05:00,38.1,38.1,29.78,SSE,158,8.1,8.3,100,0.00,CLR,,0.32,WeatherDisplay:10.37,2013-03-09 16:05:00,
2013-03-09 10:10:00,37.9,37.9,29.78,SSE,158,7.0,7.5,100,0.00,CLR,,0.32,WeatherDisplay:10.37,2013-03-09 16:10:00,
2013-03-09 10:15:00,38.1,38.1,29.78,SSE,158,5.8,6.4,100,0.00,CLR,,0.32,WeatherDisplay:10.37,2013-03-09 16:15:00,
2013-03-09 10:20:00,38.1,38.1,29.78,South,180,11.5,11.5,100,0.00,CLR,,0.32,WeatherDisplay:10.37,2013-03-09 16:20:00,
2013-03-09 10:25:00,38.1,38.1,29.78,SSE,158,10.4,10.4,100,0.00,CLR,,0.32,WeatherDisplay:10.37,2013-03-09 16:25:00,
2013-03-09 10:30:00,38.3,38.3,29.78,SSE,158,9.2,9.5,100,0.00,CLR,,0.32,WeatherDisplay:10.37,2013-03-09 16:30:00,
2013-03-09 10:35:00,38.1,38.1,29.77,SSE,158,9.7,9.7,100,0.00,CLR,,0.32,WeatherDisplay:10.37,2013-03-09 16:35:00,
2013-03-09 10:40:00,38.1,38.1,29.77,SSE,158,2.3,0.0,100,0.00,CLR,,0.32,WeatherDisplay:10.37,2013-03-09 16:40:00,
2013-03-09 10:45:00,38.1,38.1,29.77,SE,135,7.3,7.8,100,0.00,,,0.32,WeatherDisplay:10.37,2013-03-09 16:45:00,
2013-03-09 10:50:00,38.1,38.1,29.77,SSE,158,6.9,7.2,100,0.00,CLR,,0.32,WeatherDisplay:10.37,2013-03-09 16:50:00,
2013-03-09 10:55:00,38.3,38.3,29.76,SSE,158,4.9,5.2,100,0.00,CLR,,0.32,WeatherDisplay:10.37,2013-03-09 16:55:00,
2013-03-09 11:00:00,38.3,38.3,29.76,SSE,158,6.2,6.2,100,0.00,,,0.32,WeatherDisplay:10.37,2013-03-09 17:00:00,
2013-03-09 11:05:00,38.3,38.3,29.76,SE,135,3.5,3.5,100,0.00,,,0.32,WeatherDisplay:10.37,2013-03-09 17:05:00,
2013-03-09 11:10:00,38.1,38.1,29.75,SSE,158,8.1,8.1,100,0.00,,,0.32,WeatherDisplay:10.37,2013-03-09 17:10:00,
2013-03-09 11:15:00,38.1,38.1,29.75,SSE,158,4.6,5.5,100,0.02,RA,,0.34,WeatherDisplay:10.37,2013-03-09 17:15:00,
2013-03-09 11:20:00,38.3,38.3,29.75,SE,135,6.9,7.0,100,0.02,RA,,0.34,WeatherDisplay:10.37,2013-03-09 17:20:00,
2013-03-09 11:25:00,38.1,38.1,29.74,SSE,158,8.1,8.7,100,0.04,RA,,0.36,WeatherDisplay:10.37,2013-03-09 17:25:00,
2013-03-09 11:30:00,38.1,38.1,29.74,ESE,112,11.9,11.9,100,0.04,RA,,0.36,WeatherDisplay:10.37,2013-03-09 17:30:00,
2013-03-09 11:35:00,38.1,38.1,29.74,SSE,158,6.9,6.9,100,0.04,CLR,,0.36,WeatherDisplay:10.37,2013-03-09 17:35:00,
2013-03-09 11:40:00,38.1,38.1,29.74,SE,135,6.9,8.3,100,0.06,RA,,0.39,WeatherDisplay:10.37,2013-03-09 17:40:00,
2013-03-09 11:45:00,38.1,38.1,29.73,SE,135,8.1,8.9,100,0.06,RA,,0.39,WeatherDisplay:10.37,2013-03-09 17:45:00,
2013-03-09 11:50:00,38.1,38.1,29.73,SE,135,17.3,17.3,100,0.08,RA,,0.41,WeatherDisplay:10.37,2013-03-09 17:50:00,
2013-03-09 11:55:00,38.1,38.1,29.72,SSE,158,10.5,11.3,100,0.08,RA,,0.41,WeatherDisplay:10.37,2013-03-09 17:55:00,
2013-03-09 12:00:00,38.3,38.3,29.72,SSE,158,16.1,16.1,100,0.08,CLR,,0.43,WeatherDisplay:10.37,2013-03-09 18:00:00,
2013-03-09 12:05:00,38.3,38.3,29.72,SE,135,8.1,14.2,100,0.10,RA,,0.43,WeatherDisplay:10.37,2013-03-09 18:05:00,
2013-03-09 12:10:00,38.3,38.3,29.72,SSE,158,10.4,10.8,100,0.10,RA,,0.43,WeatherDisplay:10.37,2013-03-09 18:10:00,
2013-03-09 12:15:00,38.3,38.3,29.72,SSE,158,16.1,16.1,100,0.08,CLR,,0.43,WeatherDisplay:10.37,2013-03-09 18:15:00,
2013-03-09 12:20:00,38.3,38.3,29.72,SSE,158,16.1,16.8,100,0.08,CLR,,0.43,WeatherDisplay:10.37,2013-03-09 18:20:00,
2013-03-09 12:25:00,38.3,38.3,29.72,SSE,158,13.8,14.2,100,0.06,CLR,,0.43,WeatherDisplay:10.37,2013-03-09 18:25:00,
2013-03-09 12:30:00,38.3,38.3,29.72,SSE,158,13.8,14.2,100,0.06,CLR,,0.43,WeatherDisplay:10.37,2013-03-09 18:30:00,
2013-03-09 12:35:00,38.3,38.3,29.72,SSE,158,13.8,14.2,100,0.06,CLR,,0.43,WeatherDisplay:10.37,2013-03-09 18:35:00,
2013-03-09 12:40:00,38.8,38.8,29.72,SSE,158,13.8,14.2,100,0.04,CLR,,0.43,WeatherDisplay:10.37,2013-03-09 18:40:00,
2013-03-09 12:45:00,38.8,38.8,29.72,SSE,158,17.3,17.3,100,0.04,CLR,,0.43,WeatherDisplay:10.37,2013-03-09 18:45:00,
2013-03-09 12:50:00,38.8,38.8,29.72,SSE,158,17.3,17.3,100,0.02,CLR,,0.43,WeatherDisplay:10.37,2013-03-09 18:50:00,
2013-03-09 12:55:00,38.8,38.8,29.72,SSE,158,17.3,17.3,100,0.02,CLR,,0.43,WeatherDisplay:10.37,2013-03-09 18:55:00,
2013-03-09 13:00:00,38.8,38.8,29.72,SSE,158,17.3,17.3,100,0.02,CLR,,0.43,WeatherDisplay:10.37,2013-03-09 19:00:00,
2013-03-09 13:05:00,38.8,38.8,29.72,SSE,158,17.3,17.3,100,0.00,CLR,,0.43,WeatherDisplay:10.37,2013-03-09 19:05:00,
2013-03-09 13:10:00,38.8,38.8,29.72,SSE,158,17.3,17.3,100,0.00,CLR,,0.43,WeatherDisplay:10.37,2013-03-09 19:10:00,
2013-03-09 13:15:00,38.8,38.8,29.72,SSE,158,17.3,17.3,100,0.00,CLR,,0.43,WeatherDisplay:10.37,2013-03-09 19:15:00,
2013-03-09 13:20:00,38.8,38.8,29.72,SSE,158,17.3,17.3,100,0.00,CLR,,0.43,WeatherDisplay:10.37,2013-03-09 19:20:00,
2013-03-09 13:25:00,38.8,38.8,29.72,SSE,158,23.0,23.0,100,0.00,CLR,,0.43,WeatherDisplay:10.37,2013-03-09 19:25:00,
2013-03-09 13:30:00,41.5,41.5,29.72,SSE,158,23.0,23.0,100,0.00,CLR,,0.43,WeatherDisplay:10.37,2013-03-09 19:30:00,
2013-03-09 13:35:00,41.5,41.5,29.72,SE,135,15.0,24.0,100,0.00,CLR,,0.43,WeatherDisplay:10.37,2013-03-09 19:35:00,
2013-03-09 13:40:00,41.5,41.5,29.72,SSE,158,18.4,18.4,100,0.00,CLR,,0.43,WeatherDisplay:10.37,2013-03-09 19:40:00,
2013-03-09 13:45:00,41.5,41.5,29.72,SSE,158,18.4,18.4,100,0.00,CLR,,0.43,WeatherDisplay:10.37,2013-03-09 19:45:00,
2013-03-09 13:50:00,41.5,41.5,29.72,SSE,158,18.4,18.4,100,0.00,CLR,,0.43,WeatherDisplay:10.37,2013-03-09 19:50:00,
2013-03-09 13:55:00,41.5,41.5,29.72,SSE,158,18.4,18.4,100,0.00,CLR,,0.43,WeatherDisplay:10.37,2013-03-09 19:55:00,
2013-03-09 14:00:00,41.5,41.5,29.72,SSE,158,18.4,18.4,100,0.00,CLR,,0.43,WeatherDisplay:10.37,2013-03-09 20:00:00,
2013-03-09 14:05:00,41.0,41.0,29.72,South,180,17.3,19.7,100,0.00,CLR,,0.43,WeatherDisplay:10.37,2013-03-09 20:05:00,
2013-03-09 14:10:00,41.0,41.0,29.72,South,180,17.3,19.7,100,0.00,CLR,,0.43,WeatherDisplay:10.37,2013-03-09 20:10:00,
2013-03-09 14:15:00,41.0,41.0,29.72,South,180,17.3,19.7,100,0.00,CLR,,0.43,WeatherDisplay:10.37,2013-03-09 20:15:00,
2013-03-09 14:20:00,41.0,41.0,29.72,South,180,13.8,18.2,100,0.00,CLR,,0.43,WeatherDisplay:10.37,2013-03-09 20:20:00,
2013-03-09 14:25:00,41.0,41.0,29.72,South,180,10.4,14.5,100,0.00,CLR,,0.43,WeatherDisplay:10.37,2013-03-09 20:25:00,
2013-03-09 14:30:00,41.0,41.0,29.72,South,180,10.4,14.5,100,0.00,CLR,,0.43,WeatherDisplay:10.37,2013-03-09 20:30:00,
2013-03-09 14:35:00,41.0,41.0,29.72,SSE,158,10.4,11.0,100,0.00,CLR,,0.43,WeatherDisplay:10.37,2013-03-09 20:35:00,
2013-03-09 14:40:00,40.6,40.6,29.72,SSE,158,9.2,11.0,100,0.00,CLR,,0.43,WeatherDisplay:10.37,2013-03-09 20:40:00,
2013-03-09 14:45:00,40.6,40.6,29.72,SSE,158,9.2,11.0,100,0.00,CLR,,0.43,WeatherDisplay:10.37,2013-03-09 20:45:00,
2013-03-09 14:50:00,40.6,40.6,29.72,SSE,158,9.2,11.0,100,0.00,CLR,,0.43,WeatherDisplay:10.37,2013-03-09 20:50:00,
2013-03-09 14:55:00,40.6,40.6,29.72,SSE,158,9.2,11.0,100,0.00,CLR,,0.43,WeatherDisplay:10.37,2013-03-09 20:55:00,
2013-03-09 15:00:00,40.6,40.6,29.77,SSE,158,9.2,11.0,100,0.00,CLR,,0.43,WeatherDisplay:10.37,2013-03-09 21:00:00,
2013-03-09 15:05:00,40.6,40.6,29.77,SSE,158,9.2,11.0,100,0.00,CLR,,0.43,WeatherDisplay:10.37,2013-03-09 21:05:00,
2013-03-09 15:10:00,40.6,40.6,29.77,SSE,158,9.2,11.0,100,0.00,CLR,,0.43,WeatherDisplay:10.37,2013-03-09 21:10:00,
2013-03-09 15:15:00,40.6,40.6,29.77,SSE,158,9.2,11.0,100,0.00,CLR,,0.43,WeatherDisplay:10.37,2013-03-09 21:15:00,
2013-03-09 15:20:00,40.6,40.6,29.77,SSE,158,9.2,11.0,100,0.00,CLR,,0.43,WeatherDisplay:10.37,2013-03-09 21:20:00,
2013-03-09 15:25:00,40.6,40.6,29.77,SE,135,9.2,10.1,100,0.00,CLR,,0.43,WeatherDisplay:10.37,2013-03-09 21:25:00,
2013-03-09 15:30:00,40.6,40.6,29.77,SE,135,0.0,0.0,100,0.00,CLR,,0.43,WeatherDisplay:10.37,2013-03-09 21:30:00,
2013-03-09 15:35:00,40.6,40.6,29.77,SE,135,0.0,0.0,100,0.00,,,0.43,WeatherDisplay:10.37,2013-03-09 21:35:00,
2013-03-09 15:40:00,40.6,40.6,29.77,SE,135,4.6,0.0,100,0.00,,,0.43,WeatherDisplay:10.37,2013-03-09 21:40:00,
2013-03-09 15:45:00,40.6,40.6,29.77,ESE,112,0.0,0.0,100,0.00,,,0.43,WeatherDisplay:10.37,2013-03-09 21:45:00,
2013-03-09 15:50:00,40.6,40.6,29.77,ESE,112,0.0,0.0,100,0.00,,,0.43,WeatherDisplay:10.37,2013-03-09 21:50:00,
2013-03-09 15:55:00,40.6,40.6,29.77,SE,135,1.1,0.0,100,0.00,,,0.43,WeatherDisplay:10.37,2013-03-09 21:55:00,
2013-03-09 16:00:00,40.6,40.6,29.77,SE,135,1.1,0.0,100,0.00,,,0.43,WeatherDisplay:10.37,2013-03-09 22:00:00,
2013-03-09 16:05:00,40.6,40.6,29.77,SE,135,1.1,0.0,100,0.00,,,0.43,WeatherDisplay:10.37,2013-03-09 22:05:00,
2013-03-09 16:10:00,40.6,40.6,29.77,SE,135,0.0,0.9,100,0.00,,,0.43,WeatherDisplay:10.37,2013-03-09 22:10:00,
2013-03-09 16:15:00,40.6,40.6,29.77,SE,135,0.0,0.9,100,0.00,,,0.43,WeatherDisplay:10.37,2013-03-09 22:15:00,
2013-03-09 16:20:00,40.6,40.6,29.77,SE,135,0.0,0.9,100,0.00,,,0.43,WeatherDisplay:10.37,2013-03-09 22:20:00,
2013-03-09 16:25:00,40.6,40.6,29.77,SE,135,0.0,0.9,100,0.00,,,0.43,WeatherDisplay:10.37,2013-03-09 22:25:00,
2013-03-09 16:30:00,40.6,40.6,29.77,SE,135,0.0,0.9,100,0.00,,,0.43,WeatherDisplay:10.37,2013-03-09 22:30:00,
2013-03-09 16:35:00,40.6,40.6,29.77,SE,135,1.4,0.0,100,0.00,,,0.43,WeatherDisplay:10.37,2013-03-09 22:35:00,
2013-03-09 16:40:00,40.6,40.6,29.77,SE,135,0.0,1.4,100,0.00,,,0.43,WeatherDisplay:10.37,2013-03-09 22:40:00,
2013-03-09 16:45:00,40.6,40.6,29.77,SE,135,0.0,1.4,100,0.00,,,0.43,WeatherDisplay:10.37,2013-03-09 22:45:00,
2013-03-09 16:50:00,40.6,40.6,29.77,SE,135,2.3,0.0,100,0.00,,,0.43,WeatherDisplay:10.37,2013-03-09 22:50:00,
2013-03-09 16:55:00,40.6,40.6,29.77,SE,135,2.3,0.0,100,0.00,,,0.43,WeatherDisplay:10.37,2013-03-09 22:55:00,
2013-03-09 17:00:00,40.6,40.6,29.77,SE,135,1.1,2.6,100,0.00,,,0.43,WeatherDisplay:10.37,2013-03-09 23:00:00,
2013-03-09 17:05:00,40.6,40.6,29.77,SE,135,1.1,2.6,100,0.00,,,0.43,WeatherDisplay:10.37,2013-03-09 23:05:00,
2013-03-09 17:10:00,40.6,40.6,29.77,SE,135,1.1,1.7,100,0.00,,,0.43,WeatherDisplay:10.37,2013-03-09 23:10:00,
2013-03-09 17:15:00,40.1,40.1,29.77,SE,135,1.1,1.7,100,0.00,,,0.43,WeatherDisplay:10.37,2013-03-09 23:15:00,
2013-03-09 17:20:00,40.1,40.1,29.77,SE,135,0.0,0.0,100,0.00,,,0.43,WeatherDisplay:10.37,2013-03-09 23:20:00,
2013-03-09 17:25:00,40.1,40.1,29.77,SE,135,8.1,0.0,100,0.00,,,0.43,WeatherDisplay:10.37,2013-03-09 23:25:00,
2013-03-09 17:30:00,40.1,40.1,29.77,SE,135,8.1,0.0,100,0.00,,,0.43,WeatherDisplay:10.37,2013-03-09 23:30:00,
2013-03-09 17:35:00,40.1,40.1,29.77,SE,135,8.1,0.0,100,0.00,,,0.43,WeatherDisplay:10.37,2013-03-09 23:35:00,
2013-03-09 17:40:00,40.1,40.1,29.77,SE,135,9.2,9.2,100,0.00,,,0.43,WeatherDisplay:10.37,2013-03-09 23:40:00,
2013-03-09 17:45:00,40.1,40.1,29.77,SE,135,9.2,9.2,100,0.00,CLR,,0.43,WeatherDisplay:10.37,2013-03-09 23:45:00,
2013-03-09 17:50:00,40.1,40.1,29.77,SE,135,9.2,9.2,100,0.00,CLR,,0.43,WeatherDisplay:10.37,2013-03-09 23:50:00,
2013-03-09 17:55:00,40.1,40.1,29.77,SE,135,9.2,9.2,100,0.00,CLR,,0.43,WeatherDisplay:10.37,2013-03-09 23:55:00,
2013-03-09 18:00:00,40.1,40.1,29.77,SE,135,9.2,9.2,100,0.00,CLR,,0.43,WeatherDisplay:10.37,2013-03-10 00:00:00,
2013-03-09 18:05:00,40.1,40.1,29.77,SE,135,9.2,9.2,100,0.00,CLR,,0.43,WeatherDisplay:10.37,2013-03-10 00:05:00,
2013-03-09 18:10:00,40.1,40.1,29.77,SE,135,9.2,9.2,100,0.00,CLR,,0.43,WeatherDisplay:10.37,2013-03-10 00:10:00,
2013-03-09 18:15:00,40.1,40.1,29.77,SE,135,9.2,9.2,100,0.00,CLR,,0.43,WeatherDisplay:10.37,2013-03-10 00:15:00,
2013-03-09 18:20:00,40.1,40.1,29.77,SE,135,9.2,9.2,100,0.00,CLR,,0.43,WeatherDisplay:10.37,2013-03-10 00:20:00,
2013-03-09 18:25:00,40.1,40.1,29.77,SE,135,9.2,9.2,100,0.00,CLR,,0.43,WeatherDisplay:10.37,2013-03-10 00:25:00,
2013-03-09 18:30:00,40.1,40.1,29.77,SE,135,9.2,9.2,100,0.00,CLR,,0.43,WeatherDisplay:10.37,2013-03-10 00:30:00,
2013-03-09 18:35:00,40.1,40.1,29.77,SE,135,9.2,9.2,100,0.00,CLR,,0.43,WeatherDisplay:10.37,2013-03-10 00:35:00,
2013-03-09 18:40:00,40.1,40.1,29.77,SE,135,9.2,9.2,100,0.00,CLR,,0.43,WeatherDisplay:10.37,2013-03-10 00:40:00,
2013-03-09 18:45:00,40.1,40.1,29.77,SE,135,9.2,9.2,100,0.00,CLR,,0.43,WeatherDisplay:10.37,2013-03-10 00:45:00,
2013-03-09 18:50:00,40.1,40.1,29.77,ESE,112,11.6,11.6,100,0.00,CLR,,0.43,WeatherDisplay:10.37,2013-03-10 00:50:00,
2013-03-09 18:55:00,40.1,40.1,29.77,ESE,112,11.5,11.5,100,0.00,CLR,,0.43,WeatherDisplay:10.37,2013-03-10 00:55:00,
2013-03-09 19:00:00,40.1,40.1,29.77,ESE,112,11.5,11.5,100,0.00,CLR,,0.43,WeatherDisplay:10.37,2013-03-10 01:00:00,
2013-03-09 19:05:00,40.1,40.1,29.77,ESE,112,11.5,11.5,100,0.00,CLR,,0.43,WeatherDisplay:10.37,2013-03-10 01:05:00,
2013-03-09 19:10:00,40.1,40.1,29.77,ESE,112,11.5,11.5,100,0.00,CLR,,0.43,WeatherDisplay:10.37,2013-03-10 01:10:00,
2013-03-09 19:15:00,40.1,40.1,29.77,ESE,112,11.5,11.5,100,0.00,CLR,,0.43,WeatherDisplay:10.37,2013-03-10 01:15:00,
2013-03-09 19:20:00,40.1,40.1,29.77,ESE,112,11.5,11.5,100,0.00,CLR,,0.43,WeatherDisplay:10.37,2013-03-10 01:20:00,
2013-03-09 19:25:00,40.1,40.1,29.77,ESE,112,11.5,11.5,100,0.00,CLR,,0.43,WeatherDisplay:10.37,2013-03-10 01:25:00,
2013-03-09 19:30:00,40.1,40.1,29.77,ESE,112,11.5,11.5,100,0.00,CLR,,0.43,WeatherDisplay:10.37,2013-03-10 01:30:00,
2013-03-09 19:35:00,40.1,40.1,29.77,ESE,112,11.5,11.5,100,0.00,CLR,,0.43,WeatherDisplay:10.37,2013-03-10 01:35:00,
2013-03-09 19:40:00,40.1,40.1,29.77,ESE,112,11.5,11.5,100,0.00,CLR,,0.43,WeatherDisplay:10.37,2013-03-10 01:40:00,
2013-03-09 19:45:00,40.1,40.1,29.77,ESE,112,11.5,11.5,100,0.00,CLR,,0.43,WeatherDisplay:10.37,2013-03-10 01:45:00,
2013-03-09 19:50:00,40.1,40.1,29.77,East,90,4.6,12.4,100,0.00,CLR,,0.43,WeatherDisplay:10.37,2013-03-10 01:50:00,
2013-03-09 19:55:00,40.1,40.1,29.77,East,90,4.6,12.4,100,0.00,CLR,,0.43,WeatherDisplay:10.37,2013-03-10 01:55:00,
2013-03-09 20:00:00,39.6,39.6,29.77,East,90,4.6,5.5,100,0.00,CLR,,0.43,WeatherDisplay:10.37,2013-03-10 02:00:00,
2013-03-09 20:05:00,39.6,39.6,29.77,East,90,0.0,5.5,100,0.00,CLR,,0.43,WeatherDisplay:10.37,2013-03-10 02:05:00,
2013-03-09 20:10:00,39.6,39.6,29.77,East,90,0.0,5.5,100,0.00,CLR,,0.43,WeatherDisplay:10.37,2013-03-10 02:10:00,
2013-03-09 20:15:00,39.6,39.6,29.77,ESE,112,0.0,0.0,100,0.00,,,0.43,WeatherDisplay:10.37,2013-03-10 02:15:00,
2013-03-09 20:20:00,39.6,39.6,29.77,ESE,112,0.0,0.0,100,0.00,,,0.43,WeatherDisplay:10.37,2013-03-10 02:20:00,
2013-03-09 20:25:00,39.6,39.6,29.77,ESE,112,0.0,0.0,100,0.00,,,0.43,WeatherDisplay:10.37,2013-03-10 02:25:00,
2013-03-09 20:30:00,39.6,39.6,29.77,ESE,112,0.0,0.0,100,0.00,,,0.43,WeatherDisplay:10.37,2013-03-10 02:30:00,
2013-03-09 20:35:00,39.6,39.6,29.77,ESE,112,0.0,0.0,100,0.00,,,0.43,WeatherDisplay:10.37,2013-03-10 02:35:00,
2013-03-09 20:40:00,37.4,37.4,29.77,ESE,112,0.0,0.0,100,0.00,,,0.43,WeatherDisplay:10.37,2013-03-10 02:40:00,
2013-03-09 20:45:00,37.4,37.4,29.77,ESE,112,0.0,0.0,100,0.00,,,0.43,WeatherDisplay:10.37,2013-03-10 02:45:00,
2013-03-09 20:50:00,37.4,37.4,29.77,ESE,112,0.0,0.0,100,0.00,,,0.43,WeatherDisplay:10.37,2013-03-10 02:50:00,
2013-03-09 20:55:00,37.4,37.4,29.77,NE,45,0.0,0.0,100,0.00,,,0.43,WeatherDisplay:10.37,2013-03-10 02:55:00,
2013-03-09 21:00:00,37.4,37.4,29.77,NE,45,0.0,0.0,100,0.00,,,0.43,WeatherDisplay:10.37,2013-03-10 03:00:00,
2013-03-09 21:05:00,37.4,37.4,29.77,NE,45,0.0,0.0,100,0.00,,,0.43,WeatherDisplay:10.37,2013-03-10 03:05:00,
2013-03-09 21:10:00,37.4,37.4,29.77,NE,45,0.0,0.0,100,0.00,,,0.43,WeatherDisplay:10.37,2013-03-10 03:10:00,
2013-03-09 21:15:00,37.4,37.4,29.77,NE,45,0.0,0.0,100,0.00,,,0.43,WeatherDisplay:10.37,2013-03-10 03:15:00,
2013-03-09 21:20:00,37.4,37.4,29.77,NE,45,0.0,0.0,100,0.00,,,0.43,WeatherDisplay:10.37,2013-03-10 03:20:00,
2013-03-09 21:25:00,37.4,37.4,29.77,NNE,22,2.3,0.0,100,0.00,,,0.43,WeatherDisplay:10.37,2013-03-10 03:25:00,
2013-03-09 21:30:00,37.4,37.4,29.77,NNE,22,2.3,0.0,100,0.00,,,0.43,WeatherDisplay:10.37,2013-03-10 03:30:00,
2013-03-09 21:35:00,37.4,37.4,29.77,NNE,22,2.3,0.0,100,0.00,,,0.43,WeatherDisplay:10.37,2013-03-10 03:35:00,
2013-03-09 21:40:00,37.4,37.4,29.77,NNE,22,0.0,2.0,100,0.00,,,0.43,WeatherDisplay:10.37,2013-03-10 03:40:00,
2013-03-09 21:45:00,37.4,37.4,29.77,NNE,22,0.0,2.0,100,0.00,,,0.43,WeatherDisplay:10.37,2013-03-10 03:45:00,
2013-03-09 21:50:00,37.9,37.9,29.77,NNE,22,0.0,2.0,100,0.00,,,0.43,WeatherDisplay:10.37,2013-03-10 03:50:00,
2013-03-09 21:55:00,37.6,37.6,29.77,NE,45,0.0,0.0,100,0.00,,,0.43,WeatherDisplay:10.37,2013-03-10 03:55:00,
2013-03-09 22:00:00,37.6,37.6,29.77,NE,45,0.0,0.0,100,0.00,,,0.43,WeatherDisplay:10.37,2013-03-10 04:00:00,
2013-03-09 22:05:00,37.8,37.8,29.77,ENE,68,3.5,3.5,100,0.00,,,0.43,WeatherDisplay:10.37,2013-03-10 04:05:00,
2013-03-09 22:10:00,37.8,37.8,29.77,ENE,68,2.3,2.9,100,0.00,,,0.43,WeatherDisplay:10.37,2013-03-10 04:10:00,
2013-03-09 22:15:00,37.8,37.8,29.77,ENE,68,2.3,2.9,100,0.00,,,0.43,WeatherDisplay:10.37,2013-03-10 04:15:00,
2013-03-09 22:20:00,37.8,37.8,29.77,ENE,68,0.0,0.0,100,0.00,,,0.43,WeatherDisplay:10.37,2013-03-10 04:20:00,
2013-03-09 22:25:00,37.8,37.8,29.77,NE,45,0.0,0.0,100,0.00,,,0.43,WeatherDisplay:10.37,2013-03-10 04:25:00,
2013-03-09 22:30:00,37.8,37.8,29.77,NE,45,0.0,0.0,100,0.00,,,0.43,WeatherDisplay:10.37,2013-03-10 04:30:00,
2013-03-09 22:35:00,37.8,37.8,29.77,NE,45,0.0,0.0,100,0.00,,,0.43,WeatherDisplay:10.37,2013-03-10 04:35:00,
2013-03-09 22:40:00,37.8,37.8,29.77,NE,45,0.0,0.0,100,0.00,,,0.43,WeatherDisplay:10.37,2013-03-10 04:40:00,
2013-03-09 22:45:00,37.8,37.8,29.77,NE,45,0.0,0.0,100,0.00,,,0.43,WeatherDisplay:10.37,2013-03-10 04:45:00,
2013-03-09 22:50:00,37.8,37.8,29.77,NE,45,0.0,0.0,100,0.00,,,0.43,WeatherDisplay:10.37,2013-03-10 04:50:00,
2013-03-09 22:55:00,37.8,37.8,29.77,NE,45,0.0,0.0,100,0.00,,,0.43,WeatherDisplay:10.37,2013-03-10 04:55:00,
2013-03-09 23:00:00,37.8,37.8,29.77,NE,45,0.0,0.0,100,0.00,,,0.43,WeatherDisplay:10.37,2013-03-10 05:00:00,
2013-03-09 23:01:00,37.8,37.8,29.77,NE,45,0.0,0.0,100,0.00,,,0.43,WeatherDisplay:10.37,2013-03-10 05:01:00,
2013-03-09 23:06:00,37.8,37.8,29.77,NE,45,0.0,0.0,100,0.00,,,0.43,WeatherDisplay:10.37,2013-03-10 05:06:00,
2013-03-09 23:11:00,37.8,37.8,29.77,ENE,68,5.8,0.0,100,0.00,,,0.43,WeatherDisplay:10.37,2013-03-10 05:11:00,
2013-03-09 23:16:00,37.8,37.8,29.77,ENE,68,5.8,0.0,100,0.00,,,0.43,WeatherDisplay:10.37,2013-03-10 05:16:00,
2013-03-09 23:21:00,37.8,37.8,29.77,ENE,68,5.8,0.0,100,0.00,,,0.43,WeatherDisplay:10.37,2013-03-10 05:21:00,
2013-03-09 23:26:00,37.8,37.8,29.77,ENE,68,5.8,0.0,100,0.00,,,0.43,WeatherDisplay:10.37,2013-03-10 05:26:00,
2013-03-09 23:31:00,37.8,37.8,29.77,ENE,68,5.8,0.0,100,0.00,,,0.43,WeatherDisplay:10.37,2013-03-10 05:31:00,
2013-03-09 23:36:00,37.8,37.8,29.77,ENE,68,5.8,0.0,100,0.00,,,0.43,WeatherDisplay:10.37,2013-03-10 05:36:00,
2013-03-09 23:41:00,37.8,37.8,29.77,ENE,68,5.8,6.4,100,0.00,,,0.43,WeatherDisplay:10.37,2013-03-10 05:41:00,
2013-03-09 23:46:00,37.8,37.8,29.66,East,90,5.8,5.8,100,0.00,,,0.43,WeatherDisplay:10.37,2013-03-10 05:46:00,
2013-03-09 23:51:00,37.8,37.8,29.66,East,90,0.0,5.8,100,0.00,CLR,,0.43,WeatherDisplay:10.37,2013-03-10 05:51:00,
2013-03-09 23:56:00,37.8,37.8,29.66,East,90,0.0,5.8,100,0.00,CLR,,0.43,WeatherDisplay:10.37,2013-03-10 05:56:00,